Weather History for KBRO - November, 2013

Change the Weather History Date:

Saturday, November 23, 2013

  Actual Average Record
Temperature  
Mean Temperature 47 °F 67 °F  
Max Temperature 50 °F 77 °F 88 °F (1917)
Min Temperature 44 °F 58 °F 37 °F (1938)
Degree Days  
Heating Degree Days 18 2  
Month to date heating degree days 29 30  
Since 1 July heating degree days 29 34  
Cooling Degree Days 0 5  
Month to date cooling degree days 173 151  
Year to date cooling degree days 4120 3916  
Moisture  
Dew Point 42 °F    
Average Humidity 82    
Maximum Humidity 89    
Minimum Humidity 74    
Precipitation  
Precipitation 0.02 in 0.05 in 2.50 in (1999)
Month to date precipitation 1.61 1.49  
Year to date precipitation 25.17 25.96  
Sea Level Pressure  
Sea Level Pressure 30.31 in    
Wind  
Wind Speed 16 mph (NNW)    
Max Wind Speed 22 mph    
Max Gust Speed 31 mph    
Visibility 10 miles    
Events Rain    
T = Trace of Precipitation, MM = Missing Value Source: NWS Daily Summary

Daily Weather History Graph

Daily Weather History Graph

Search for Another Location

Airport or City:

Trip Planner

Search our weather history database for the weather conditions in past years. The results will help you decide how hot, cold, wet, or windy it might be!

Date:

Astronomy

Nov. 23, 2013 Rise Set
Actual Time 6:53 AM CST 5:38 PM CST
Civil Twilight 6:29 AM CST 6:03 PM CST
Nautical Twilight 6:01 AM CST 6:31 PM CST
Astronomical Twilight 5:33 AM CST 6:58 PM CST
Moon 10:55 PM CST (11/23) 11:22 AM CST (11/23)
Length of Visible Light 11h 33m
Length of Day
10h 44m
Waning Gibbous, 69% of the Moon is Illuminated
Nov 23
Waning Gibbous
Nov 25
Last Quarter
Dec 2
New
Dec 9
First Quarter
Dec 17
Full

Hourly Weather History & Observations

Time (CST) Temp. Windchill Dew Point Humidity Pressure Visibility Wind Dir Wind Speed Gust Speed Precip Events Conditions
12:03 AM 46.4 °F 39.8 °F - N/A% 30.30 in 10.0 mi NNW 16.1 mph 26.5 mph 0.01 in Rain Rain
12:22 AM 46.4 °F 40.1 °F - N/A% 30.29 in 10.0 mi NNW 15.0 mph - 0.03 in Rain Light Rain
12:31 AM 46.4 °F 40.7 °F - N/A% 30.29 in 10.0 mi NNW 12.7 mph 21.9 mph 0.03 in Rain Light Rain
12:53 AM 46.9 °F - - N/A% 30.28 in 10.0 mi NNW 16.1 mph 24.2 mph 0.03 in   Overcast
1:10 AM 46.4 °F 39.8 °F - N/A% 30.27 in 10.0 mi NNW 16.1 mph 24.2 mph N/A   Overcast
1:26 AM 46.4 °F 39.0 °F - N/A% 30.26 in 10.0 mi NNW 19.6 mph 25.3 mph N/A   Overcast
1:53 AM 46.0 °F 39.6 °F - N/A% 30.25 in 10.0 mi NW 15.0 mph 26.5 mph N/A   Overcast
2:01 AM 46.4 °F 38.7 °F - N/A% 30.26 in 10.0 mi NW 20.7 mph 27.6 mph N/A   Overcast
2:53 AM 46.0 °F 39.6 °F - N/A% 30.26 in 10.0 mi NNW 15.0 mph 26.5 mph N/A   Overcast
3:03 AM 44.6 °F 36.6 °F - N/A% 30.26 in 10.0 mi NNW 19.6 mph 26.5 mph N/A   Overcast
3:42 AM 44.6 °F 38.1 °F - N/A% 30.27 in 10.0 mi NNW 13.8 mph 27.6 mph N/A   Overcast
3:53 AM 45.0 °F 38.5 °F - N/A% 30.27 in 10.0 mi NNW 13.8 mph 25.3 mph N/A   Overcast
4:53 AM 44.1 °F 35.4 °F - N/A% 30.27 in 10.0 mi NNW 21.9 mph 26.5 mph N/A   Overcast
5:29 AM 44.6 °F 37.2 °F - N/A% 30.28 in 9.0 mi NNW 17.3 mph 24.2 mph N/A   Overcast
5:53 AM 44.1 °F 35.9 °F - N/A% 30.29 in 10.0 mi NNW 19.6 mph 26.5 mph N/A   Overcast
6:53 AM 44.1 °F 35.9 °F 41.0 °F 89% 30.33 in 10.0 mi NW 19.6 mph 27.6 mph N/A   Overcast
7:53 AM 44.1 °F 36.8 °F 39.9 °F 85% 30.36 in 10.0 mi NNW 16.1 mph 25.3 mph N/A   Overcast
8:53 AM 45.0 °F 37.9 °F 41.0 °F 86% 30.37 in 10.0 mi NNW 16.1 mph 24.2 mph N/A   Overcast
9:53 AM 46.0 °F 39.6 °F 41.0 °F 83% 30.37 in 10.0 mi NNW 15.0 mph 26.5 mph N/A   Overcast
10:53 AM 46.9 °F - 42.1 °F 83% 30.35 in 10.0 mi NNW 17.3 mph 25.3 mph N/A   Overcast
11:31 AM 48.2 °F - 42.8 °F 82% 30.35 in 10.0 mi NW 11.5 mph 20.7 mph N/A   Overcast
11:53 AM 48.0 °F - 42.1 °F 80% 30.33 in 10.0 mi NW 17.3 mph 24.2 mph N/A   Overcast
12:53 PM 48.0 °F - 42.1 °F 80% 30.30 in 10.0 mi NNW 18.4 mph 23.0 mph N/A   Overcast
1:53 PM 50.0 °F - 43.0 °F 77% 30.29 in 10.0 mi NNW 20.7 mph 26.5 mph N/A   Overcast
2:53 PM 48.9 °F - 43.0 °F 80% 30.28 in 10.0 mi NW 16.1 mph 24.2 mph N/A   Overcast
3:53 PM 48.9 °F - 43.0 °F 80% 30.29 in 10.0 mi NNW 12.7 mph 21.9 mph N/A   Overcast
4:38 PM 48.2 °F - 42.8 °F 82% 30.29 in 10.0 mi NNW 15.0 mph 21.9 mph N/A   Overcast
4:53 PM 48.9 °F - 42.1 °F 77% 30.30 in 10.0 mi NNW 15.0 mph 21.9 mph N/A   Overcast
5:24 PM 48.2 °F - 42.8 °F 82% 30.30 in 10.0 mi NNW 13.8 mph 26.5 mph N/A   Overcast
5:53 PM 46.9 °F - 43.0 °F 86% 30.30 in 10.0 mi NNW 16.1 mph 25.3 mph N/A   Overcast
6:53 PM 46.9 °F - 42.1 °F 83% 30.33 in 10.0 mi NNW 13.8 mph 18.4 mph N/A   Overcast
7:53 PM 46.9 °F - 42.1 °F 83% 30.35 in 10.0 mi NNW 12.7 mph 21.9 mph N/A   Overcast
8:53 PM 46.9 °F - 41.0 °F 80% 30.36 in 10.0 mi NNW 17.3 mph 24.2 mph N/A   Overcast
9:53 PM 46.9 °F - 42.1 °F 83% 30.39 in 10.0 mi NW 15.0 mph 21.9 mph N/A   Overcast
10:53 PM 46.9 °F - 42.1 °F 83% 30.36 in 10.0 mi NNW 12.7 mph 20.7 mph N/A   Overcast
11:15 PM 46.4 °F 40.1 °F 42.8 °F 87% 30.36 in 10.0 mi NW 15.0 mph 21.9 mph N/A   Overcast
11:53 PM 46.9 °F - 42.1 °F 83% 30.35 in 10.0 mi NNW 15.0 mph 19.6 mph N/A   Overcast